Time,TemperatureF,DewpointF,PressureIn,WindDirection,WindDirectionDegrees,WindSpeedMPH,WindSpeedGustMPH,Humidity,HourlyPrecipIn,Conditions,Clouds,dailyrainin,SoftwareType,DateUTC
2013-02-02 00:22:00,24.0,7.0,30.12,West,280,11.0,14.0,47,-99.99,,,-99.99,,2013-02-02 05:22:00,
2013-02-02 00:32:00,24.0,7.0,30.12,West,280,11.0,14.0,47,-99.99,,,-99.99,,2013-02-02 05:32:00,
2013-02-02 00:41:00,25.0,8.0,30.12,West,280,17.0,21.0,47,-99.99,,,-99.99,,2013-02-02 05:41:00,
2013-02-02 00:51:00,24.0,6.0,30.12,West,280,17.0,22.0,45,-99.99,,,-99.99,,2013-02-02 05:51:00,
2013-02-02 01:01:00,24.0,6.0,30.12,West,280,17.0,22.0,45,-99.99,,,-99.99,,2013-02-02 06:01:00,
2013-02-02 01:11:00,24.0,7.0,30.13,WNW,290,15.0,17.0,46,-99.99,,,-99.99,,2013-02-02 06:11:00,
2013-02-02 01:21:00,24.0,6.0,30.13,West,280,14.0,21.0,46,-99.99,,,-99.99,,2013-02-02 06:21:00,
2013-02-02 01:31:00,24.0,6.0,30.13,West,280,14.0,21.0,46,-99.99,,,-99.99,,2013-02-02 06:31:00,
2013-02-02 01:41:00,24.0,7.0,30.13,West,280,16.0,20.0,48,-99.99,,,-99.99,,2013-02-02 06:41:00,
2013-02-02 01:51:00,24.0,7.0,30.14,West,280,16.0,18.0,47,-99.99,,,-99.99,,2013-02-02 06:51:00,
2013-02-02 02:01:00,24.0,7.0,30.14,West,280,16.0,18.0,47,-99.99,,,-99.99,,2013-02-02 07:01:00,
2013-02-02 02:11:00,24.0,7.0,30.14,West,280,16.0,18.0,47,-99.99,,,-99.99,,2013-02-02 07:11:00,
2013-02-02 02:21:00,24.0,7.0,30.14,West,280,17.0,23.0,48,-99.99,,,-99.99,,2013-02-02 07:21:00,
2013-02-02 02:31:00,24.0,7.0,30.14,West,280,17.0,23.0,48,-99.99,,,-99.99,,2013-02-02 07:31:00,
2013-02-02 02:41:00,24.0,8.0,30.15,West,280,17.0,22.0,50,-99.99,,,-99.99,,2013-02-02 07:41:00,
2013-02-02 02:51:00,24.0,8.0,30.16,West,280,17.0,21.0,50,-99.99,,,-99.99,,2013-02-02 07:51:00,
2013-02-02 03:01:00,24.0,8.0,30.16,West,280,17.0,21.0,50,-99.99,,,-99.99,,2013-02-02 08:01:00,
2013-02-02 03:11:00,24.0,8.0,30.16,West,280,17.0,21.0,50,-99.99,,,-99.99,,2013-02-02 08:11:00,
2013-02-02 03:21:00,23.0,8.0,30.16,West,270,16.0,20.0,50,-99.99,,,-99.99,,2013-02-02 08:21:00,
2013-02-02 03:31:00,23.0,8.0,30.16,West,270,18.0,21.0,52,-99.99,,,-99.99,,2013-02-02 08:31:00,
2013-02-02 03:41:00,23.0,8.0,30.16,West,270,18.0,21.0,52,-99.99,,,-99.99,,2013-02-02 08:41:00,
2013-02-02 03:52:00,23.0,9.0,30.16,West,280,16.0,21.0,53,-99.99,,,-99.99,,2013-02-02 08:52:00,
2013-02-02 04:01:00,23.0,9.0,30.16,West,280,16.0,21.0,53,-99.99,,,-99.99,,2013-02-02 09:01:00,
2013-02-02 04:11:00,23.0,8.0,30.17,WNW,290,13.0,16.0,52,-99.99,,,-99.99,,2013-02-02 09:11:00,
2013-02-02 04:22:00,23.0,8.0,30.17,WNW,290,11.0,14.0,53,-99.99,,,-99.99,,2013-02-02 09:22:00,
2013-02-02 04:31:00,23.0,8.0,30.17,WNW,290,11.0,14.0,53,-99.99,,,-99.99,,2013-02-02 09:31:00,
2013-02-02 04:41:00,22.0,9.0,30.19,West,280,11.0,13.0,54,-99.99,,,-99.99,,2013-02-02 09:41:00,
2013-02-02 04:51:00,22.0,9.0,30.19,WNW,290,10.0,13.0,55,-99.99,,,-99.99,,2013-02-02 09:51:00,
2013-02-02 05:01:00,22.0,9.0,30.19,WNW,290,10.0,13.0,55,-99.99,,,-99.99,,2013-02-02 10:01:00,
2013-02-02 05:11:00,22.0,9.0,30.19,WNW,290,10.0,13.0,55,-99.99,,,-99.99,,2013-02-02 10:11:00,
2013-02-02 05:21:00,22.0,9.0,30.19,West,280,15.0,17.0,56,-99.99,,,-99.99,,2013-02-02 10:21:00,
2013-02-02 05:31:00,23.0,10.0,30.19,West,280,15.0,18.0,56,-99.99,,,-99.99,,2013-02-02 10:31:00,
2013-02-02 05:41:00,23.0,10.0,30.19,West,280,15.0,18.0,56,-99.99,,,-99.99,,2013-02-02 10:41:00,
2013-02-02 05:51:00,23.0,10.0,30.20,West,280,15.0,17.0,56,-99.99,,,-99.99,,2013-02-02 10:51:00,
2013-02-02 06:01:00,23.0,10.0,30.20,West,280,15.0,17.0,56,-99.99,,,-99.99,,2013-02-02 11:01:00,
2013-02-02 06:11:00,23.0,10.0,30.20,West,280,15.0,17.0,56,-99.99,,,-99.99,,2013-02-02 11:11:00,
2013-02-02 06:21:00,22.0,10.0,30.21,WNW,290,13.0,16.0,58,-99.99,,,-99.99,,2013-02-02 11:21:00,
2013-02-02 06:31:00,22.0,10.0,30.21,WNW,290,13.0,16.0,58,-99.99,,,-99.99,,2013-02-02 11:31:00,
2013-02-02 06:41:00,22.0,10.0,30.21,West,280,14.0,16.0,59,-99.99,,,-99.99,,2013-02-02 11:41:00,
2013-02-02 06:52:00,22.0,10.0,30.21,West,280,10.0,14.0,60,-99.99,,,-99.99,,2013-02-02 11:52:00,
2013-02-02 07:01:00,22.0,10.0,30.21,West,280,10.0,14.0,60,-99.99,,,-99.99,,2013-02-02 12:01:00,
2013-02-02 07:11:00,22.0,10.0,30.22,WNW,290,11.0,14.0,60,-99.99,,,-99.99,,2013-02-02 12:11:00,
2013-02-02 07:22:00,22.0,10.0,30.22,WNW,290,11.0,15.0,60,-99.99,,,-99.99,,2013-02-02 12:22:00,
2013-02-02 07:32:00,22.0,10.0,30.23,WNW,290,10.0,13.0,61,-99.99,,,-99.99,,2013-02-02 12:32:00,
2013-02-02 07:42:00,22.0,10.0,30.23,WNW,290,10.0,13.0,61,-99.99,,,-99.99,,2013-02-02 12:42:00,
2013-02-02 07:52:00,22.0,10.0,30.24,WNW,290,10.0,13.0,59,-99.99,,,-99.99,,2013-02-02 12:52:00,
2013-02-02 08:01:00,22.0,10.0,30.24,WNW,290,10.0,13.0,59,-99.99,,,-99.99,,2013-02-02 13:01:00,
2013-02-02 08:11:00,22.0,9.0,30.24,WNW,290,13.0,16.0,58,-99.99,,,-99.99,,2013-02-02 13:11:00,
2013-02-02 08:21:00,22.0,10.0,30.24,WNW,290,11.0,15.0,57,-99.99,,,-99.99,,2013-02-02 13:21:00,
2013-02-02 08:32:00,22.0,10.0,30.24,WNW,290,11.0,15.0,57,-99.99,,,-99.99,,2013-02-02 13:32:00,
2013-02-02 08:42:00,23.0,9.0,30.24,WNW,300,11.0,14.0,56,-99.99,,,-99.99,,2013-02-02 13:42:00,
2013-02-02 08:51:00,23.0,10.0,30.24,WNW,290,11.0,14.0,56,-99.99,,,-99.99,,2013-02-02 13:51:00,
2013-02-02 09:01:00,23.0,10.0,30.24,WNW,290,11.0,14.0,56,-99.99,,,-99.99,,2013-02-02 14:01:00,
2013-02-02 09:11:00,23.0,9.0,30.25,WNW,300,13.0,16.0,54,-99.99,,,-99.99,,2013-02-02 14:11:00,
2013-02-02 09:21:00,23.0,9.0,30.25,WNW,290,11.0,16.0,52,-99.99,,,-99.99,,2013-02-02 14:21:00,
2013-02-02 09:31:00,23.0,9.0,30.25,WNW,290,11.0,16.0,52,-99.99,,,-99.99,,2013-02-02 14:31:00,
2013-02-02 09:41:00,24.0,9.0,30.25,WNW,290,13.0,16.0,53,-99.99,,,-99.99,,2013-02-02 14:41:00,
2013-02-02 09:52:00,25.0,9.0,30.25,WNW,290,8.0,11.0,51,-99.99,,,-99.99,,2013-02-02 14:52:00,
2013-02-02 10:02:00,25.0,9.0,30.25,WNW,290,8.0,11.0,51,-99.99,,,-99.99,,2013-02-02 15:02:00,
2013-02-02 10:11:00,25.0,9.0,30.25,WNW,290,8.0,11.0,51,-99.99,,,-99.99,,2013-02-02 15:11:00,
2013-02-02 10:21:00,25.0,9.0,30.24,West,260,9.0,15.0,48,-99.99,,,-99.99,,2013-02-02 15:21:00,
2013-02-02 10:32:00,25.0,9.0,30.24,West,260,9.0,15.0,48,-99.99,,,-99.99,,2013-02-02 15:32:00,
2013-02-02 10:41:00,25.0,11.0,30.24,West,260,13.0,17.0,55,-99.99,,,-99.99,,2013-02-02 15:41:00,
2013-02-02 10:51:00,26.0,11.0,30.24,WSW,240,14.0,16.0,53,-99.99,,,-99.99,,2013-02-02 15:51:00,
2013-02-02 11:01:00,26.0,11.0,30.24,WSW,240,14.0,16.0,53,-99.99,,,-99.99,,2013-02-02 16:01:00,
2013-02-02 11:11:00,26.0,13.0,30.23,WSW,250,13.0,17.0,57,-99.99,,,-99.99,,2013-02-02 16:11:00,
2013-02-02 11:21:00,25.0,13.0,30.22,West,260,13.0,16.0,60,-99.99,,,-99.99,,2013-02-02 16:21:00,
2013-02-02 11:31:00,25.0,13.0,30.22,West,260,13.0,16.0,60,-99.99,,,-99.99,,2013-02-02 16:31:00,
2013-02-02 11:42:00,26.0,14.0,30.22,WSW,250,15.0,18.0,60,-99.99,,,-99.99,,2013-02-02 16:42:00,
2013-02-02 11:51:00,26.0,13.0,30.20,WSW,240,15.0,18.0,56,-99.99,,,-99.99,,2013-02-02 16:51:00,
2013-02-02 12:01:00,26.0,13.0,30.20,WSW,240,15.0,18.0,56,-99.99,,,-99.99,,2013-02-02 17:01:00,
2013-02-02 12:11:00,27.0,13.0,30.19,SW,230,16.0,20.0,54,-99.99,,,-99.99,,2013-02-02 17:11:00,
2013-02-02 12:21:00,27.0,14.0,30.19,WSW,240,18.0,23.0,57,-99.99,,,-99.99,,2013-02-02 17:21:00,
2013-02-02 12:31:00,27.0,14.0,30.19,WSW,240,18.0,23.0,57,-99.99,,,-99.99,,2013-02-02 17:31:00,
2013-02-02 12:41:00,27.0,14.0,30.18,SW,230,16.0,23.0,56,-99.99,,,-99.99,,2013-02-02 17:41:00,
2013-02-02 12:52:00,27.0,13.0,30.17,SW,230,16.0,20.0,54,-99.99,,,-99.99,,2013-02-02 17:52:00,
2013-02-02 13:01:00,27.0,13.0,30.17,SW,230,16.0,20.0,54,-99.99,,,-99.99,,2013-02-02 18:01:00,
2013-02-02 13:11:00,27.0,13.0,30.17,SW,230,16.0,20.0,54,-99.99,,,-99.99,,2013-02-02 18:11:00,
2013-02-02 13:21:00,28.0,13.0,30.15,WSW,240,13.0,16.0,51,-99.99,,,-99.99,,2013-02-02 18:21:00,
2013-02-02 13:31:00,28.0,13.0,30.14,WSW,240,10.0,14.0,52,-99.99,,,-99.99,,2013-02-02 18:31:00,
2013-02-02 13:41:00,28.0,13.0,30.14,WSW,240,10.0,14.0,52,-99.99,,,-99.99,,2013-02-02 18:41:00,
2013-02-02 13:52:00,29.0,11.0,30.14,WSW,240,9.0,15.0,47,-99.99,,,-99.99,,2013-02-02 18:52:00,
2013-02-02 14:01:00,29.0,11.0,30.14,WSW,240,9.0,15.0,47,-99.99,,,-99.99,,2013-02-02 19:01:00,
2013-02-02 14:11:00,28.0,12.0,30.13,WSW,250,10.0,14.0,51,-99.99,,,-99.99,,2013-02-02 19:11:00,
2013-02-02 14:21:00,29.0,11.0,30.12,SW,230,13.0,16.0,47,-99.99,,,-99.99,,2013-02-02 19:21:00,
2013-02-02 14:31:00,29.0,11.0,30.12,SW,230,13.0,16.0,47,-99.99,,,-99.99,,2013-02-02 19:31:00,
2013-02-02 14:41:00,30.0,13.0,30.11,SW,230,15.0,20.0,47,-99.99,,,-99.99,,2013-02-02 19:41:00,
2013-02-02 14:51:00,29.0,11.0,30.10,SW,230,15.0,18.0,47,-99.99,,,-99.99,,2013-02-02 19:51:00,
2013-02-02 15:01:00,29.0,11.0,30.10,SW,230,15.0,18.0,47,-99.99,,,-99.99,,2013-02-02 20:01:00,
2013-02-02 15:11:00,29.0,11.0,30.10,SW,230,15.0,18.0,47,-99.99,,,-99.99,,2013-02-02 20:11:00,
2013-02-02 15:21:00,30.0,13.0,30.09,SW,220,22.0,26.0,49,-99.99,,,-99.99,,2013-02-02 20:21:00,
2013-02-02 15:31:00,29.0,12.0,30.09,SW,220,18.0,24.0,48,-99.99,,,-99.99,,2013-02-02 20:31:00,
2013-02-02 15:41:00,29.0,12.0,30.09,SW,220,18.0,24.0,48,-99.99,,,-99.99,,2013-02-02 20:41:00,
2013-02-02 15:52:00,30.0,14.0,30.08,SW,220,21.0,25.0,51,-99.99,,,-99.99,,2013-02-02 20:52:00,
2013-02-02 16:01:00,30.0,14.0,30.08,SW,220,21.0,25.0,51,-99.99,,,-99.99,,2013-02-02 21:01:00,
2013-02-02 16:11:00,30.0,14.0,30.07,SW,220,22.0,26.0,51,-99.99,,,-99.99,,2013-02-02 21:11:00,
2013-02-02 16:21:00,29.0,13.0,30.07,SW,220,23.0,29.0,49,-99.99,,,-99.99,,2013-02-02 21:21:00,
2013-02-02 16:31:00,29.0,13.0,30.07,SW,220,26.0,32.0,50,-99.99,,,-99.99,,2013-02-02 21:31:00,
2013-02-02 16:42:00,29.0,13.0,30.07,SW,220,26.0,32.0,50,-99.99,,,-99.99,,2013-02-02 21:42:00,
2013-02-02 16:51:00,29.0,14.0,30.06,SW,220,28.0,33.0,52,-99.99,,,-99.99,,2013-02-02 21:51:00,
2013-02-02 17:01:00,29.0,14.0,30.06,SW,220,28.0,33.0,52,-99.99,,,-99.99,,2013-02-02 22:01:00,
2013-02-02 17:11:00,29.0,15.0,30.06,SW,230,23.0,29.0,53,-99.99,,,-99.99,,2013-02-02 22:11:00,
2013-02-02 17:21:00,29.0,15.0,30.06,SW,230,25.0,29.0,53,-99.99,,,-99.99,,2013-02-02 22:21:00,
2013-02-02 17:32:00,29.0,15.0,30.06,SW,230,25.0,29.0,53,-99.99,,,-99.99,,2013-02-02 22:32:00,
2013-02-02 17:41:00,30.0,15.0,30.06,SW,220,25.0,33.0,54,-99.99,,,-99.99,,2013-02-02 22:41:00,
2013-02-02 17:51:00,29.0,16.0,30.05,SW,230,28.0,34.0,55,-99.99,,,-99.99,,2013-02-02 22:51:00,
2013-02-02 18:01:00,29.0,16.0,30.05,SW,230,28.0,34.0,55,-99.99,,,-99.99,,2013-02-02 23:01:00,
2013-02-02 18:11:00,29.0,16.0,30.05,SW,230,28.0,34.0,55,-99.99,,,-99.99,,2013-02-02 23:11:00,
2013-02-02 18:21:00,30.0,15.0,30.05,SW,230,26.0,30.0,53,-99.99,,,-99.99,,2013-02-02 23:21:00,
2013-02-02 18:32:00,30.0,15.0,30.05,SW,230,26.0,30.0,53,-99.99,,,-99.99,,2013-02-02 23:32:00,
2013-02-02 18:41:00,30.0,16.0,30.05,SW,220,24.0,29.0,55,-99.99,,,-99.99,,2013-02-02 23:41:00,
2013-02-02 18:52:00,30.0,15.0,30.04,SW,230,28.0,31.0,53,-99.99,,,-99.99,,2013-02-02 23:52:00,
2013-02-02 19:01:00,30.0,15.0,30.04,SW,230,28.0,31.0,53,-99.99,,,-99.99,,2013-02-03 00:01:00,
2013-02-02 19:11:00,30.0,15.0,30.04,SW,230,28.0,31.0,53,-99.99,,,-99.99,,2013-02-03 00:11:00,
2013-02-02 19:21:00,30.0,16.0,30.05,SW,230,25.0,31.0,56,-99.99,,,-99.99,,2013-02-03 00:21:00,
2013-02-02 19:31:00,30.0,16.0,30.05,SW,230,25.0,31.0,56,-99.99,,,-99.99,,2013-02-03 00:31:00,
2013-02-02 19:41:00,30.0,16.0,30.05,SW,230,25.0,31.0,56,-99.99,,,-99.99,,2013-02-03 00:41:00,